| time (UTC) | temp F | wind direction | speed MPH | gust MPH | rain 1hr in | rain 24hr in | rain mn in | humidity % | barometer mb |
| 20260904092033 | 60 | 302 | 0.0 | 0.0 | 0.00 | 0.00 | 0.00 | 1011.0 | |
| 20260904091533 | 60 | 302 | 0.0 | 0.0 | 0.00 | 0.00 | 0.00 | 1011.0 | |
| 20260904091033 | 61 | 302 | 0.0 | 0.0 | 0.00 | 0.00 | 0.00 | 1010.9 | |
| 20260904090534 | 61 | 302 | 0.0 | 0.0 | 0.00 | 0.00 | 0.00 | 1010.8 | |
| 20260904090034 | 61 | 302 | 0.0 | 3.0 | 0.00 | 0.00 | 0.00 | 1010.7 | |
| 20260904085533 | 61 | 302 | 0.0 | 3.0 | 0.00 | 0.00 | 0.00 | 1010.8 | |
| 20260904085032 | 61 | 302 | 2.0 | 3.0 | 0.00 | 0.00 | 0.00 | 1011.0 | |
| 20260904084532 | 61 | 302 | 0.0 | 3.0 | 0.00 | 0.00 | 0.00 | 1010.9 | |
| 20260904084033 | 61 | 302 | 0.0 | 5.0 | 0.00 | 0.00 | 0.00 | 1010.8 | |
| 20260904083534 | 61 | 302 | 2.0 | 5.0 | 0.00 | 0.00 | 0.00 | 1010.7 | |
| 20260904083033 | 61 | 302 | 2.0 | 3.0 | 0.00 | 0.00 | 0.00 | 1010.7 | |
| 20260904082618 | 61 | 302 | 0.0 | 0.0 | 0.00 | 0.00 | 0.00 | 1010.6 | |
| 20260904082048 | 61 | 302 | 0.0 | 0.0 | 0.00 | 0.00 | 0.00 | 1010.6 | |
| 20260904081550 | 61 | 302 | 0.0 | 0.0 | 0.00 | 0.00 | 0.00 | 1010.7 | |
| 20260904081032 | 61 | 302 | 0.0 | 0.0 | 0.00 | 0.00 | 0.00 | 1010.7 | |
| 20260904080534 | 61 | 302 | 0.0 | 0.0 | 0.00 | 0.00 | 0.00 | 1010.8 | |
| 20260904080034 | 61 | 302 | 0.0 | 0.0 | 0.00 | 0.00 | 0.00 | 1010.9 | |
| 20260904075533 | 61 | 302 | 0.0 | 2.0 | 0.00 | 0.00 | 0.00 | 1010.8 | |
| 20260904075033 | 61 | 302 | 0.0 | 2.0 | 0.00 | 0.00 | 0.00 | 1010.9 | |
| 20260904074533 | 61 | 302 | 0.0 | 0.0 | 0.00 | 0.00 | 0.00 | 1010.9 | |
| 20260904074033 | 61 | 302 | 0.0 | 0.0 | 0.00 | 0.00 | 0.00 | 1010.9 | |
| 20260904073533 | 62 | 302 | 0.0 | 0.0 | 0.00 | 0.00 | 0.00 | 1010.9 | |
| 20260904073033 | 62 | 302 | 0.0 | 0.0 | 0.00 | 0.00 | 0.00 | 1010.8 | |
| 20260904072618 | 62 | 302 | 0.0 | 0.0 | 0.00 | 0.00 | 0.00 | 1010.9 | |
| 20260904072033 | 62 | 302 | 0.0 | 0.0 | 0.00 | 0.00 | 0.00 | 1010.9 | |
| 20260904071534 | 62 | 302 | 0.0 | 0.0 | 0.00 | 0.00 | 0.00 | 1011.0 | |
| 20260904071048 | 62 | 302 | 0.0 | 0.0 | 0.00 | 0.00 | 0.00 | 1011.0 | |
| 20260904070533 | 62 | 302 | 0.0 | 0.0 | 0.00 | 0.00 | 0.00 | 1011.2 | |
| 20260904070033 | 62 | 302 | 0.0 | 0.0 | 0.00 | 0.00 | 0.00 | 1011.2 | |
| 20260904065534 | 62 | 302 | 0.0 | 0.0 | 0.00 | 0.00 | 0.00 | 1011.1 | |
| 20260904065048 | 62 | 302 | 0.0 | 0.0 | 0.00 | 0.00 | 0.00 | 1011.1 | |
| 20260904064532 | 62 | 302 | 0.0 | 0.0 | 0.00 | 0.00 | 0.00 | 1011.2 | |
| 20260904064033 | 63 | 302 | 0.0 | 0.0 | 0.00 | 0.00 | 0.00 | 1011.2 | |
| 20260904063532 | 63 | 302 | 0.0 | 0.0 | 0.00 | 0.00 | 0.00 | 1011.2 | |
| 20260904063033 | 63 | 302 | 0.0 | 0.0 | 0.00 | 0.00 | 0.00 | 1011.4 | |
| 20260904062533 | 63 | 302 | 0.0 | 0.0 | 0.00 | 0.00 | 0.00 | 1011.2 | |
| 20260904062033 | 63 | 302 | 0.0 | 0.0 | 0.00 | 0.00 | 0.00 | 1011.2 | |
| 20260904061603 | 63 | 302 | 0.0 | 0.0 | 0.00 | 0.00 | 0.00 | 1011.2 | |
| 20260904061032 | 63 | 302 | 0.0 | 0.0 | 0.00 | 0.00 | 0.00 | 1011.2 | |
| 20260904060533 | 63 | 302 | 0.0 | 0.0 | 0.00 | 0.00 | 0.00 | 1011.3 | |
| 20260904055533 | 64 | 302 | 0.0 | 0.0 | 0.00 | 0.00 | 0.00 | 1011.4 | |
| 20260904055048 | 64 | 302 | 0.0 | 0.0 | 0.00 | 0.00 | 0.00 | 1011.4 | |
| 20260904054548 | 64 | 302 | 0.0 | 0.0 | 0.00 | 0.00 | 0.00 | 1011.3 | |
| 20260904054033 | 64 | 302 | 0.0 | 0.0 | 0.00 | 0.00 | 0.00 | 1011.3 | |
| 20260904053534 | 64 | 302 | 0.0 | 0.0 | 0.00 | 0.00 | 0.00 | 1011.2 | |
| 20260904053033 | 64 | 302 | 0.0 | 0.0 | 0.00 | 0.00 | 0.00 | 1011.2 | |
| 20260904052532 | 65 | 302 | 0.0 | 0.0 | 0.00 | 0.00 | 0.00 | 1011.3 | |
| 20260904052034 | 65 | 302 | 0.0 | 0.0 | 0.00 | 0.00 | 0.00 | 1011.2 | |
| 20260904051533 | 65 | 302 | 0.0 | 5.0 | 0.00 | 0.00 | 0.00 | 1011.3 | |
| 20260904051034 | 65 | 302 | 0.0 | 5.0 | 0.00 | 0.00 | 0.00 | 1011.4 | |
| 20260904050549 | 65 | 302 | 0.0 | 5.0 | 0.00 | 0.00 | 0.00 | 1011.5 | |
| 20260904050032 | 65 | 302 | 0.0 | 5.0 | 0.00 | 0.00 | 0.00 | 1011.5 | |
| 20260904045532 | 65 | 302 | 1.0 | 5.0 | 0.00 | 0.00 | 0.00 | 1011.7 | |
| 20260904045033 | 64 | 302 | 1.0 | 5.0 | 0.00 | 0.00 | 0.00 | 1011.7 | |
| 20260904044533 | 64 | 302 | 1.0 | 5.0 | 0.00 | 0.00 | 0.00 | 1011.8 | |
| 20260904044032 | 64 | 302 | 2.0 | 5.0 | 0.00 | 0.00 | 0.00 | 1012.0 | |
| 20260904043532 | 64 | 302 | 0.0 | 5.0 | 0.00 | 0.00 | 0.00 | 1011.9 | |
| 20260904043033 | 64 | 302 | 0.0 | 0.0 | 0.00 | 0.00 | 0.00 | 1012.0 | |
| 20260904042533 | 64 | 302 | 0.0 | 0.0 | 0.00 | 0.00 | 0.00 | 1012.0 | |
| 20260904042032 | 64 | 302 | 0.0 | 0.0 | 0.00 | 0.00 | 0.00 | 1011.9 | |
| 20260904041533 | 64 | 302 | 0.0 | 0.0 | 0.00 | 0.00 | 0.00 | 1011.9 | |
| 20260904041033 | 64 | 302 | 0.0 | 0.0 | 0.00 | 0.00 | 0.00 | 1011.8 | |
| 20260904040532 | 65 | 302 | 0.0 | 0.0 | 0.00 | 0.00 | 0.00 | 1011.9 | |
| 20260904040032 | 65 | 302 | 0.0 | 0.0 | 0.00 | 0.00 | 0.00 | 1011.8 | |
| 20260904035534 | 65 | 302 | 0.0 | 0.0 | 0.00 | 0.00 | 0.00 | 1012.0 | |
| 20260904035047 | 65 | 302 | 0.0 | 0.0 | 0.00 | 0.00 | 0.00 | 1012.0 | |
| 20260904034533 | 65 | 302 | 0.0 | 0.0 | 0.00 | 0.00 | 0.00 | 1012.0 | |
| 20260904034032 | 65 | 302 | 0.0 | 0.0 | 0.00 | 0.01 | 0.00 | 1011.9 | |
| 20260904033532 | 65 | 302 | 0.0 | 0.0 | 0.00 | 0.01 | 0.00 | 1012.0 | |
| 20260904033032 | 65 | 302 | 0.0 | 0.0 | 0.00 | 0.01 | 0.00 | 1011.9 | |
| 20260904032532 | 66 | 302 | 0.0 | 0.0 | 0.00 | 0.01 | 0.00 | 1011.8 | |
| 20260904032032 | 66 | 302 | 0.0 | 0.0 | 0.00 | 0.01 | 0.00 | 1011.7 | |
| 20260904031532 | 66 | 302 | 0.0 | 0.0 | 0.00 | 0.01 | 0.00 | 1011.9 | |
| 20260904031034 | 66 | 302 | 0.0 | 0.0 | 0.00 | 0.01 | 0.00 | 1011.9 | |
| 20260904030602 | 66 | 302 | 0.0 | 0.0 | 0.00 | 0.01 | 0.00 | 1012.0 | |
| 20260904030032 | 66 | 302 | 0.0 | 0.0 | 0.00 | 0.01 | 0.00 | 1012.1 | |
| 20260904025533 | 67 | 302 | 0.0 | 0.0 | 0.00 | 0.01 | 0.00 | 1012.4 | |
| 20260904025032 | 67 | 302 | 0.0 | 0.0 | 0.00 | 0.01 | 0.00 | 1012.4 | |
| 20260904024532 | 67 | 302 | 0.0 | 0.0 | 0.00 | 0.01 | 0.00 | 1012.5 | |
| 20260904024032 | 67 | 302 | 0.0 | 0.0 | 0.00 | 0.01 | 0.00 | 1012.5 | |
| 20260904023532 | 67 | 302 | 0.0 | 0.0 | 0.00 | 0.01 | 0.00 | 1012.5 | |
| 20260904023032 | 68 | 302 | 0.0 | 0.0 | 0.00 | 0.01 | 0.00 | 1012.7 | |
| 20260904022533 | 68 | 302 | 0.0 | 0.0 | 0.00 | 0.01 | 0.00 | 1012.8 | |
| 20260904022032 | 68 | 302 | 0.0 | 0.0 | 0.00 | 0.01 | 0.00 | 1012.9 | |
| 20260904021532 | 68 | 302 | 0.0 | 0.0 | 0.00 | 0.01 | 0.00 | 1012.9 | |
| 20260904021032 | 68 | 302 | 0.0 | 0.0 | 0.00 | 0.01 | 0.00 | 1012.8 | |
| 20260904020532 | 68 | 302 | 0.0 | 0.0 | 0.00 | 0.01 | 0.00 | 1012.8 | |
| 20260904020032 | 69 | 302 | 0.0 | 0.0 | 0.00 | 0.01 | 0.00 | 1012.7 | |
| 20260904015602 | 69 | 302 | 0.0 | 0.0 | 0.00 | 0.01 | 0.00 | 1012.7 | |
| 20260904015032 | 69 | 302 | 0.0 | 0.0 | 0.00 | 0.01 | 0.00 | 1012.8 | |
| 20260904014532 | 69 | 302 | 0.0 | 0.0 | 0.00 | 0.01 | 0.00 | 1012.8 | |
| 20260904014033 | 69 | 302 | 0.0 | 0.0 | 0.00 | 0.01 | 0.00 | 1012.7 | |
| 20260904013532 | 69 | 302 | 0.0 | 0.0 | 0.00 | 0.01 | 0.00 | 1012.7 | |
| 20260904013032 | 69 | 302 | 0.0 | 0.0 | 0.00 | 0.01 | 0.00 | 1012.7 | |
| 20260904012532 | 70 | 302 | 0.0 | 0.0 | 0.00 | 0.01 | 0.00 | 1012.7 | |
| 20260904012117 | 70 | 302 | 0.0 | 0.0 | 0.00 | 0.01 | 0.00 | 1012.6 | |
| 20260904011532 | 70 | 302 | 0.0 | 0.0 | 0.00 | 0.01 | 0.00 | 1012.6 | |
| 20260904011032 | 70 | 302 | 0.0 | 0.0 | 0.00 | 0.01 | 0.00 | 1012.5 | |
| 20260904010532 | 70 | 302 | 0.0 | 0.0 | 0.00 | 0.01 | 0.00 | 1012.7 | |
| 20260904005532 | 71 | 302 | 0.0 | 0.0 | 0.00 | 0.01 | 0.00 | 1012.6 | |
| 20260904005032 | 71 | 302 | 0.0 | 2.0 | 0.00 | 0.01 | 0.00 | 1012.6 | |
| 20260904004532 | 71 | 302 | 0.0 | 2.0 | 0.00 | 0.01 | 0.00 | 1012.7 | |
| 20260904004032 | 71 | 302 | 0.0 | 0.0 | 0.00 | 0.01 | 0.00 | 1012.8 | |
| 20260904003502 | 71 | 302 | 0.0 | 0.0 | 0.00 | 0.01 | 0.00 | 1012.8 | |
| 20260904003032 | 71 | 302 | 0.0 | 6.0 | 0.00 | 0.01 | 0.00 | 1012.8 | |
| 20260904002532 | 71 | 302 | 0.0 | 6.0 | 0.00 | 0.01 | 0.00 | 1012.6 | |
| 20260904002047 | 71 | 302 | 0.0 | 5.0 | 0.00 | 0.01 | 0.00 | 1012.5 | |
| 20260904001532 | 71 | 302 | 0.0 | 0.0 | 0.00 | 0.01 | 0.00 | 1012.6 | |
| 20260904001032 | 72 | 302 | 0.0 | 2.0 | 0.00 | 0.01 | 0.00 | 1012.3 | |
| 20260904000532 | 72 | 302 | 0.0 | 2.0 | 0.00 | 0.01 | 0.00 | 1012.2 | |
| 20260903235532 | 72 | 302 | 0.0 | 0.0 | 0.00 | 0.01 | 0.00 | 1012.1 | |
| 20260903235002 | 72 | 302 | 0.0 | 3.0 | 0.00 | 0.01 | 0.00 | 1012.1 | |
| 20260903234532 | 72 | 302 | 0.0 | 3.0 | 0.00 | 0.01 | 0.00 | 1011.8 | |
| 20260903234032 | 73 | 302 | 0.0 | 2.0 | 0.00 | 0.01 | 0.00 | 1011.9 | |
| 20260903233532 | 73 | 302 | 0.0 | 0.0 | 0.00 | 0.01 | 0.00 | 1011.8 | |
| 20260903233102 | 73 | 302 | 0.0 | 3.0 | 0.00 | 0.01 | 0.00 | 1011.9 | |
| 20260903232532 | 73 | 302 | 0.0 | 3.0 | 0.00 | 0.01 | 0.00 | 1011.9 | |
| 20260903232032 | 73 | 302 | 0.0 | 3.0 | 0.00 | 0.01 | 0.00 | 1011.8 | |
| 20260903231532 | 74 | 302 | 0.0 | 0.0 | 0.00 | 0.01 | 0.00 | 1011.8 | |
| 20260903231032 | 74 | 302 | 0.0 | 0.0 | 0.00 | 0.01 | 0.00 | 1011.8 | |
| 20260903230532 | 74 | 302 | 0.0 | 0.0 | 0.00 | 0.01 | 0.00 | 1011.7 | |
| 20260903230032 | 75 | 302 | 0.0 | 0.0 | 0.00 | 0.01 | 0.00 | 1012.0 | |
| 20260903225532 | 75 | 302 | 0.0 | 2.0 | 0.00 | 0.01 | 0.00 | 1011.9 | |
| 20260903225032 | 75 | 302 | 0.0 | 2.0 | 0.00 | 0.01 | 0.00 | 1011.9 | |
| 20260903224532 | 76 | 302 | 0.0 | 0.0 | 0.00 | 0.01 | 0.00 | 1012.0 | |
| 20260903224047 | 76 | 302 | 0.0 | 0.0 | 0.00 | 0.01 | 0.00 | 1011.8 | |
| 20260903223547 | 77 | 302 | 0.0 | 0.0 | 0.00 | 0.01 | 0.00 | 1011.9 | |
| 20260903223032 | 77 | 302 | 0.0 | 0.0 | 0.00 | 0.01 | 0.00 | 1011.9 | |
| 20260903222532 | 78 | 302 | 0.0 | 0.0 | 0.00 | 0.01 | 0.00 | 1012.0 | |
| 20260903222033 | 78 | 302 | 0.0 | 0.0 | 0.00 | 0.01 | 0.00 | 1011.9 | |
| 20260903221532 | 78 | 302 | 0.0 | 0.0 | 0.00 | 0.01 | 0.00 | 1012.0 | |
| 20260903221032 | 79 | 302 | 0.0 | 0.0 | 0.00 | 0.01 | 0.00 | 1011.8 | |
| 20260903220532 | 80 | 302 | 0.0 | 0.0 | 0.00 | 0.01 | 0.00 | 1011.9 | |
| 20260903220032 | 80 | 302 | 0.0 | 5.0 | 0.00 | 0.01 | 0.00 | 1011.9 | |
| 20260903215532 | 81 | 302 | 0.0 | 9.0 | 0.00 | 0.01 | 0.00 | 1011.7 | |
| 20260903215032 | 82 | 302 | 0.0 | 9.0 | 0.00 | 0.01 | 0.00 | 1011.6 | |
| 20260903214532 | 82 | 259 | 0.0 | 5.0 | 0.00 | 0.01 | 0.00 | 1011.4 | |
| 20260903214047 | 82 | 258 | 0.0 | 5.0 | 0.00 | 0.01 | 0.00 | 1011.6 | |
| 20260903213532 | 82 | 253 | 0.0 | 6.0 | 0.00 | 0.01 | 0.00 | 1011.5 | |
| 20260903213033 | 82 | 243 | 0.0 | 8.0 | 0.00 | 0.01 | 0.00 | 1011.6 | |
| 20260903212532 | 83 | 288 | 2.0 | 9.0 | 0.00 | 0.01 | 0.00 | 1011.8 | |
| 20260903212033 | 83 | 269 | 0.0 | 9.0 | 0.00 | 0.01 | 0.00 | 1011.8 | |
| 20260903211602 | 83 | 275 | 0.0 | 5.0 | 0.00 | 0.01 | 0.00 | 1011.8 | |
| 20260903211033 | 83 | 214 | 0.0 | 9.0 | 0.00 | 0.01 | 0.00 | 1011.8 | |
| 20260903210532 | 83 | 302 | 0.0 | 13.0 | 0.00 | 0.01 | 0.00 | 1011.8 | |
| 20260903210033 | 83 | 265 | 3.0 | 13.0 | 0.00 | 0.01 | 0.00 | 1011.9 | |
| 20260903205533 | 83 | 292 | 9.0 | 13.0 | 0.00 | 0.01 | 0.00 | 1012.0 | |
| 20260903205032 | 83 | 284 | 7.0 | 11.0 | 0.00 | 0.01 | 0.00 | 1012.0 | |
| 20260903204532 | 83 | 223 | 1.0 | 11.0 | 0.00 | 0.01 | 0.00 | 1011.9 | |
| 20260903204047 | 83 | 291 | 3.0 | 8.0 | 0.00 | 0.01 | 0.00 | 1011.8 | |
| 20260903203547 | 83 | 277 | 3.0 | 13.0 | 0.00 | 0.01 | 0.00 | 1011.9 | |
| 20260903203032 | 83 | 299 | 1.0 | 13.0 | 0.00 | 0.01 | 0.00 | 1011.7 | |
| 20260903202532 | 83 | 274 | 5.0 | 14.0 | 0.00 | 0.01 | 0.00 | 1011.8 | |
| 20260903202047 | 83 | 271 | 5.0 | 14.0 | 0.00 | 0.01 | 0.00 | 1011.9 | |
| 20260903201603 | 82 | 299 | 6.0 | 11.0 | 0.00 | 0.01 | 0.00 | 1011.6 | |
| 20260903201032 | 82 | 284 | 0.0 | 11.0 | 0.00 | 0.01 | 0.00 | 1011.6 | |
| 20260903200532 | 82 | 259 | 0.0 | 17.0 | 0.00 | 0.01 | 0.00 | 1011.7 | |
| 20260903200032 | 82 | 290 | 3.0 | 17.0 | 0.00 | 0.01 | 0.00 | 1011.7 | |
| 20260903195533 | 82 | 282 | 0.0 | 9.0 | 0.00 | 0.01 | 0.00 | 1011.5 | |
| 20260903195032 | 82 | 294 | 5.0 | 9.0 | 0.00 | 0.01 | 0.00 | 1011.5 | |
| 20260903194532 | 82 | 288 | 3.0 | 9.0 | 0.00 | 0.01 | 0.00 | 1011.9 | |
| 20260903194032 | 81 | 275 | 3.0 | 8.0 | 0.00 | 0.01 | 0.00 | 1012.0 | |
| 20260903193532 | 81 | 285 | 3.0 | 6.0 | 0.00 | 0.01 | 0.00 | 1012.0 | |
| 20260903193032 | 81 | 288 | 0.0 | 6.0 | 0.00 | 0.01 | 0.00 | 1011.8 | |
| 20260903192532 | 81 | 277 | 2.0 | 5.0 | 0.00 | 0.01 | 0.00 | 1011.9 | |
| 20260903192032 | 81 | 276 | 0.0 | 6.0 | 0.00 | 0.01 | 0.00 | 1012.1 | |
| 20260903191532 | 81 | 258 | 2.0 | 6.0 | 0.00 | 0.01 | 0.00 | 1011.9 | |
| 20260903191032 | 81 | 280 | 2.0 | 6.0 | 0.00 | 0.01 | 0.00 | 1012.1 | |
| 20260903190532 | 81 | 345 | 0.0 | 8.0 | 0.00 | 0.01 | 0.00 | 1012.1 | |
| 20260903190032 | 81 | 268 | 1.0 | 8.0 | 0.00 | 0.01 | 0.00 | 1012.4 | |
| 20260903185547 | 80 | 278 | 3.0 | 9.0 | 0.00 | 0.01 | 0.00 | 1012.4 | |
| 20260903185033 | 80 | 291 | 1.0 | 9.0 | 0.00 | 0.01 | 0.00 | 1012.4 | |
| 20260903184532 | 79 | 266 | 0.0 | 9.0 | 0.00 | 0.01 | 0.00 | 1012.4 | |
| 20260903184032 | 79 | 266 | 0.0 | 13.0 | 0.00 | 0.01 | 0.00 | 1012.4 | |
| 20260903183532 | 79 | 283 | 7.0 | 13.0 | 0.00 | 0.01 | 0.00 | 1012.5 | |
| 20260903183032 | 79 | 264 | 3.0 | 9.0 | 0.00 | 0.01 | 0.00 | 1012.5 | |
| 20260903182547 | 78 | 159 | 0.0 | 6.0 | 0.00 | 0.01 | 0.00 | 1012.5 | |
| 20260903182031 | 78 | 184 | 3.0 | 6.0 | 0.00 | 0.01 | 0.00 | 1012.5 | |
| 20260903181532 | 77 | 205 | 1.0 | 6.0 | 0.00 | 0.01 | 0.00 | 1012.5 | |
| 20260903181031 | 77 | 151 | 0.0 | 5.0 | 0.00 | 0.02 | 0.00 | 1012.6 | |
| 20260903180531 | 77 | 151 | 0.0 | 5.0 | 0.00 | 0.08 | 0.00 | 1012.7 | |
| 20260903180031 | 76 | 151 | 0.0 | 5.0 | 0.00 | 0.08 | 0.00 | 1012.6 | |
| 20260903175531 | 76 | 151 | 0.0 | 6.0 | 0.00 | 0.08 | 0.00 | 1012.7 | |
| 20260903175031 | 76 | 151 | 2.0 | 6.0 | 0.00 | 0.08 | 0.00 | 1012.7 | |
| 20260903174532 | 76 | 317 | 0.0 | 5.0 | 0.00 | 0.08 | 0.00 | 1012.8 | |
| 20260903174032 | 75 | 317 | 0.0 | 5.0 | 0.00 | 0.08 | 0.00 | 1012.8 | |
| 20260903173531 | 75 | 317 | 0.0 | 3.0 | 0.00 | 0.08 | 0.00 | 1013.1 | |
| 20260903173031 | 75 | 317 | 1.0 | 3.0 | 0.00 | 0.08 | 0.00 | 1013.0 | |
| 20260903172531 | 75 | 317 | 0.0 | 2.0 | 0.00 | 0.08 | 0.00 | 1013.1 | |
| 20260903172101 | 75 | 317 | 0.0 | 3.0 | 0.00 | 0.08 | 0.00 | 1013.1 | |
| 20260903171534 | 75 | 317 | 0.0 | 5.0 | 0.00 | 0.08 | 0.00 | 1013.1 | |
| 20260903171032 | 75 | 317 | 2.0 | 5.0 | 0.00 | 0.08 | 0.00 | 1013.2 | |
| 20260903170531 | 76 | 174 | 0.0 | 8.0 | 0.00 | 0.08 | 0.00 | 1013.1 | |
| 20260903170031 | 76 | 121 | 3.0 | 8.0 | 0.00 | 0.08 | 0.00 | 1013.2 | |
| 20260903165532 | 76 | 301 | 1.0 | 9.0 | 0.00 | 0.08 | 0.00 | 1013.3 | |
| 20260903165046 | 75 | 306 | 3.0 | 9.0 | 0.00 | 0.08 | 0.00 | 1013.1 | |
| 20260903164533 | 75 | 268 | 0.0 | 3.0 | 0.00 | 0.08 | 0.00 | 1013.1 | |
| 20260903164031 | 75 | 268 | 0.0 | 5.0 | 0.00 | 0.08 | 0.00 | 1013.2 | |
| 20260903163531 | 74 | 268 | 0.0 | 5.0 | 0.00 | 0.08 | 0.00 | 1013.2 | |
| 20260903163046 | 74 | 252 | 0.0 | 5.0 | 0.00 | 0.08 | 0.00 | 1013.3 | |
| 20260903162531 | 74 | 265 | 0.0 | 3.0 | 0.00 | 0.08 | 0.00 | 1013.4 | |
| 20260903162032 | 74 | 263 | 0.0 | 3.0 | 0.00 | 0.08 | 0.00 | 1013.5 | |
| 20260903161032 | 73 | 297 | 0.0 | 5.0 | 0.00 | 0.08 | 0.00 | 1013.7 | |
| 20260903160531 | 73 | 297 | 0.0 | 0.0 | 0.00 | 0.08 | 0.00 | 1013.7 | |
| 20260903160032 | 73 | 297 | 0.0 | 5.0 | 0.00 | 0.08 | 0.00 | 1013.6 | |
| 20260903155531 | 73 | 297 | 0.0 | 5.0 | 0.00 | 0.08 | 0.00 | 1013.8 | |
| 20260903155031 | 73 | 297 | 1.0 | 5.0 | 0.00 | 0.08 | 0.00 | 1013.8 | |
| 20260903154601 | 73 | 294 | 0.0 | 5.0 | 0.00 | 0.08 | 0.00 | 1013.6 | |
| 20260903154031 | 73 | 292 | 1.0 | 6.0 | 0.00 | 0.08 | 0.00 | 1013.8 | |
| 20260903153532 | 73 | 215 | 0.0 | 6.0 | 0.00 | 0.08 | 0.00 | 1013.7 | |
| 20260903153031 | 72 | 265 | 0.0 | 3.0 | 0.00 | 0.08 | 0.00 | 1013.6 | |
| 20260903152532 | 72 | 265 | 0.0 | 3.0 | 0.00 | 0.08 | 0.00 | 1013.7 | |
| 20260903152031 | 72 | 265 | 0.0 | 3.0 | 0.00 | 0.08 | 0.00 | 1013.7 | |
| 20260903151532 | 72 | 265 | 0.0 | 3.0 | 0.00 | 0.08 | 0.00 | 1013.6 | |
| 20260903151046 | 72 | 301 | 0.0 | 3.0 | 0.00 | 0.08 | 0.00 | 1013.6 | |
| 20260903150601 | 72 | 301 | 0.0 | 3.0 | 0.00 | 0.08 | 0.00 | 1013.7 | |
| 20260903150031 | 72 | 301 | 0.0 | 0.0 | 0.00 | 0.08 | 0.00 | 1013.8 | |
| 20260903145532 | 71 | 301 | 0.0 | 0.0 | 0.00 | 0.08 | 0.00 | 1013.8 | |
| 20260903145002 | 71 | 301 | 0.0 | 3.0 | 0.00 | 0.08 | 0.00 | 1013.7 | |
| 20260903144531 | 71 | 301 | 0.0 | 3.0 | 0.00 | 0.08 | 0.00 | 1013.6 | |
| 20260903144046 | 71 | 301 | 0.0 | 3.0 | 0.00 | 0.08 | 0.00 | 1013.7 | |
| 20260903143532 | 71 | 301 | 0.0 | 3.0 | 0.00 | 0.08 | 0.00 | 1013.7 | |
| 20260903143031 | 71 | 301 | 0.0 | 3.0 | 0.00 | 0.08 | 0.00 | 1013.8 | |
| 20260903142531 | 71 | 301 | 0.0 | 3.0 | 0.00 | 0.08 | 0.00 | 1013.7 | |
| 20260903142031 | 71 | 301 | 0.0 | 0.0 | 0.00 | 0.08 | 0.00 | 1013.7 | |
| 20260903141531 | 70 | 301 | 0.0 | 2.0 | 0.00 | 0.08 | 0.00 | 1013.6 | |
| 20260903141031 | 70 | 301 | 0.0 | 2.0 | 0.00 | 0.08 | 0.00 | 1013.8 | |
| 20260903140546 | 70 | 301 | 0.0 | 5.0 | 0.00 | 0.08 | 0.00 | 1013.6 | |
| 20260903140032 | 70 | 301 | 0.0 | 5.0 | 0.00 | 0.08 | 0.00 | 1013.6 | |
| 20260903135531 | 70 | 301 | 3.0 | 5.0 | 0.00 | 0.08 | 0.00 | 1013.6 | |
| 20260903135031 | 70 | 149 | 0.0 | 5.0 | 0.00 | 0.08 | 0.00 | 1013.5 | |
| 20260903134531 | 70 | 148 | 0.0 | 5.0 | 0.00 | 0.08 | 0.00 | 1013.5 | |
| 20260903134032 | 69 | 307 | 0.0 | 5.0 | 0.00 | 0.08 | 0.00 | 1013.6 | |
| 20260903133531 | 69 | 307 | 2.0 | 3.0 | 0.00 | 0.08 | 0.00 | 1013.6 | |
| 20260903133031 | 69 | 307 | 2.0 | 5.0 | 0.00 | 0.08 | 0.00 | 1013.4 | |
| 20260903132546 | 69 | 307 | 2.0 | 5.0 | 0.00 | 0.08 | 0.00 | 1013.6 | |
| 20260903132002 | 69 | 307 | 2.0 | 5.0 | 0.00 | 0.08 | 0.00 | 1013.6 | |
| 20260903131531 | 69 | 307 | 0.0 | 3.0 | 0.00 | 0.08 | 0.00 | 1013.9 | |
| 20260903131031 | 68 | 307 | 0.0 | 5.0 | 0.00 | 0.08 | 0.00 | 1013.7 | |
| 20260903130531 | 68 | 307 | 0.0 | 5.0 | 0.00 | 0.08 | 0.00 | 1013.8 | |
| 20260903130031 | 68 | 307 | 1.0 | 3.0 | 0.00 | 0.08 | 0.00 | 1013.9 | |
| 20260903125531 | 68 | 307 | 0.0 | 2.0 | 0.00 | 0.08 | 0.00 | 1013.9 | |
| 20260903125031 | 68 | 307 | 0.0 | 3.0 | 0.00 | 0.08 | 0.00 | 1013.9 | |
| 20260903124601 | 68 | 307 | 0.0 | 3.0 | 0.00 | 0.08 | 0.00 | 1013.9 | |
| 20260903124031 | 68 | 307 | 0.0 | 3.0 | 0.00 | 0.08 | 0.00 | 1013.9 | |
| 20260903123531 | 67 | 307 | 0.0 | 0.0 | 0.00 | 0.08 | 0.00 | 1014.0 | |
| 20260903123031 | 67 | 307 | 0.0 | 0.0 | 0.00 | 0.08 | 0.00 | 1014.1 | |
| 20260903122531 | 67 | 307 | 0.0 | 0.0 | 0.00 | 0.08 | 0.00 | 1014.1 | |
| 20260903122031 | 67 | 307 | 0.0 | 0.0 | 0.00 | 0.08 | 0.00 | 1014.0 | |
| 20260903121531 | 67 | 307 | 0.0 | 0.0 | 0.00 | 0.08 | 0.00 | 1014.1 | |
| 20260903121101 | 67 | 307 | 0.0 | 0.0 | 0.00 | 0.08 | 0.00 | 1014.1 | |
| 20260903120531 | 67 | 307 | 0.0 | 0.0 | 0.00 | 0.08 | 0.00 | 1014.1 | |
| 20260903120031 | 67 | 307 | 0.0 | 0.0 | 0.00 | 0.08 | 0.00 | 1014.1 | |
| 20260903115601 | 66 | 307 | 0.0 | 0.0 | 0.00 | 0.08 | 0.00 | 1014.0 | |
| 20260903115031 | 66 | 307 | 0.0 | 0.0 | 0.00 | 0.08 | 0.00 | 1014.2 | |
| 20260903114533 | 66 | 307 | 0.0 | 0.0 | 0.00 | 0.08 | 0.00 | 1014.2 | |
| 20260903114031 | 66 | 307 | 0.0 | 0.0 | 0.00 | 0.08 | 0.00 | 1014.2 | |
| 20260903113531 | 66 | 307 | 0.0 | 3.0 | 0.00 | 0.08 | 0.00 | 1014.2 | |
| 20260903113032 | 66 | 307 | 0.0 | 3.0 | 0.00 | 0.08 | 0.00 | 1014.2 | |
| 20260903112532 | 66 | 307 | 0.0 | 0.0 | 0.00 | 0.08 | 0.00 | 1014.2 | |
| 20260903112046 | 66 | 307 | 0.0 | 0.0 | 0.00 | 0.08 | 0.00 | 1014.3 | |
| 20260903111531 | 66 | 307 | 0.0 | 0.0 | 0.00 | 0.08 | 0.00 | 1014.3 | |
| 20260903111031 | 66 | 307 | 0.0 | 0.0 | 0.00 | 0.08 | 0.00 | 1014.2 | |
| 20260903110531 | 66 | 307 | 0.0 | 3.0 | 0.00 | 0.08 | 0.00 | 1014.2 | |
| 20260903110031 | 66 | 307 | 0.0 | 3.0 | 0.00 | 0.08 | 0.00 | 1014.1 | |
| 20260903105531 | 66 | 307 | 0.0 | 0.0 | 0.00 | 0.08 | 0.00 | 1014.1 | |
| 20260903105031 | 66 | 307 | 0.0 | 0.0 | 0.00 | 0.08 | 0.00 | 1014.0 | |
| 20260903104531 | 66 | 307 | 0.0 | 0.0 | 0.00 | 0.08 | 0.00 | 1014.1 | |
| 20260903104032 | 66 | 307 | 0.0 | 0.0 | 0.00 | 0.08 | 0.00 | 1014.1 | |
| 20260903103531 | 66 | 307 | 0.0 | 0.0 | 0.00 | 0.08 | 0.00 | 1014.0 | |
| 20260903103031 | 66 | 307 | 0.0 | 0.0 | 0.00 | 0.08 | 0.00 | 1013.9 | |
| 20260903102601 | 66 | 307 | 0.0 | 0.0 | 0.00 | 0.08 | 0.00 | 1013.9 | |
| 20260903102031 | 66 | 307 | 0.0 | 0.0 | 0.00 | 0.08 | 0.00 | 1014.0 | |
| 20260903101546 | 66 | 307 | 0.0 | 2.0 | 0.00 | 0.08 | 0.00 | 1013.9 | |
| 20260903101031 | 66 | 307 | 0.0 | 2.0 | 0.00 | 0.08 | 0.00 | 1013.9 | |
| 20260903100531 | 66 | 307 | 0.0 | 0.0 | 0.00 | 0.08 | 0.00 | 1013.9 | |
| 20260903100031 | 66 | 307 | 0.0 | 0.0 | 0.00 | 0.08 | 0.00 | 1013.9 | |
| 20260903095531 | 66 | 307 | 0.0 | 0.0 | 0.00 | 0.08 | 0.00 | 1013.8 | |
| 20260903095033 | 66 | 307 | 0.0 | 0.0 | 0.00 | 0.08 | 0.00 | 1013.8 | |
| 20260903094531 | 66 | 307 | 0.0 | 2.0 | 0.00 | 0.08 | 0.00 | 1013.8 | |
| 20260903094031 | 66 | 307 | 0.0 | 2.0 | 0.00 | 0.08 | 0.00 | 1014.0 | |
| 20260903093546 | 66 | 307 | 0.0 | 0.0 | 0.00 | 0.08 | 0.00 | 1013.9 | |
| 20260903093031 | 66 | 307 | 0.0 | 0.0 | 0.00 | 0.08 | 0.00 | 1013.8 | |
| 20260903092631 | 66 | 307 | 0.0 | 0.0 | 0.00 | 0.08 | 0.00 | 1013.7 |